Location: Jardin des Dains
(18.0813°N, 63.0632°W)
Time: 23:28:22
(UTC+00:00)

Daily predictions for brighter satellites

Satellite Brightness Start Highest point End
(mag) Time Altitude Azimuth Time Altitude Azimuth Time Altitude Azimuth
ERS-2 2.0 22:37:15 10° NNE 22:40:52 77° E 22:44:30 10° S
Okean O Rocket 3.1 22:36:55 10° S 22:41:03 42° W 22:45:09 10° NNW
Cosmos 1954 Rocket 4.1 22:35:59 10° NNW 22:41:09 83° WSW 22:46:18 10° S
Atlas Centaur 2 2.6 22:35:26 10° WNW 22:41:59 52° NNE 22:47:06 10° E
RESURS DK-1 2.7 22:39:46 10° N 22:43:41 43° ENE 22:47:36 10° SE
CZ-2C R/B 0.5 22:42:18 10° WNW 22:45:29 84° NNE 22:48:42 10° ESE
CZ-4 R/B 1.8 22:43:42 10° SE 22:47:13 35° ENE 22:50:45 10° N
IRS-1C Rocket 4.2 22:42:39 10° SSE 22:47:43 52° ENE 22:52:48 10° N
ATLAS 5 CENTAUR R/B -0.2 22:45:37 10° WNW 22:48:00 46° N 22:49:26 13° ENE
Cosmos 2082 4.4 22:43:31 10° N 22:48:28 32° ENE 22:53:24 10° SE
SAR-Lupe-4 3.5 22:45:44 10° NNE 22:49:18 90° NE 22:52:52 10° SSW
SL-16 R/B 2.6 22:44:25 10° S 22:49:41 41° ESE 22:54:57 10° NE
ERBS 3.8 22:51:12 10° SW 22:54:18 36° NW 22:57:23 10° NNE
Timation 2 Rocket 4.3 22:48:59 10° NNW 22:55:11 71° WSW 23:01:10 10° S
SL-24 R/B - RUBIN 2 4.4 22:53:35 10° N 22:58:18 35° ENE 23:02:31 10° SE
HJ-1C 4.1 23:04:35 10° SE 23:07:35 31° ENE 23:10:35 10° NNE
Cosmos 2154 Rocket 4.2 23:03:48 10° SSE 23:09:43 45° E 23:15:35 10° NNE
BREEZE-M DEB (TANK) 4.1 23:06:32 10° NW 23:10:16 81° SW 23:23:19 10° SE
Cosmos 1602 3.7 23:12:16 10° S 23:16:01 54° E 23:19:47 10° NNE
DMSP B5D2-2 4.1 23:11:03 10° NNE 23:16:10 58° E 23:21:15 10° S
Cosmos 2074 Rocket 4.1 23:12:06 10° S 23:18:23 85° W 23:24:41 10° N
SL-08 RB Rocket 4.2 23:14:36 10° SE 23:18:37 34° ENE 23:22:38 10° NNE
Cosmos 1461 4.3 23:14:26 10° SW 23:18:48 44° WNW 23:23:18 10° N
H-2A R/B 2.1 23:14:42 10° SSE 23:20:00 88° WSW 23:25:25 10° NNW
Cosmos 1610 Rocket 4.5 23:14:40 10° S 23:20:38 57° E 23:26:39 10° NNE
Cosmos 2263 Rocket 4.0 23:18:31 10° NNE 23:19:30 13° NE 23:19:30 13° NE
Milstar 3 3.8 23:07:16 10° WNW 23:22:45 90° SSW 23:29:10 20° ESE
ARGOS 3.1 23:18:12 10° SSE 23:23:31 63° ENE 23:28:51 10° N
Cosmos 1666 Rocket 4.0 23:21:37 10° SSW 23:25:57 63° W 23:30:15 10° N
GPS 2-14 Rocket1 3.3 23:24:07 10° SW 23:27:36 36° SSE 23:28:19 33° SE
Cosmos 2228 Rocket 4.1 23:24:32 10° NNW 23:28:51 49° W 23:33:06 10° SSW
Cosmos 2227 Rocket 3.6 23:24:35 10° NW 23:29:50 40° WSW 23:35:03 10° S
Cosmos 2184 Rocket 4.3 23:25:13 10° SSW 23:31:18 66° W 23:37:25 10° N
Cosmos 1850 Rocket 4.1 23:26:28 10° NNW 23:31:38 76° WSW 23:36:50 10° S
GPS 2-15 Rocket1 3.2 23:26:54 10° W 23:31:51 72° N 23:33:38 39° ENE
Cosmos 1295 Rocket 4.4 23:29:16 10° S 23:35:32 65° E 23:41:44 10° NNE
Delta 7925 Rocket 3.4 23:31:59 10° W 23:36:32 62° NNW 23:38:17 37° NE
CSL-04 Debris 4.0 23:32:01 10° SSE 23:37:23 75° ENE 23:42:47 10° N
Helios 1A Rocket 2.8 23:33:56 10° SSE 23:38:01 87° E 23:42:06 10° N
YAOGAN 1 3.7 23:36:06 10° S 23:40:13 45° W 23:44:20 10° NNW
Meteor 1-27 Rocket 4.1 23:35:39 10° NNW 23:41:05 62° W 23:46:34 10° S
Okean-O 3.7 23:38:33 10° S 23:42:47 45° W 23:47:01 10° NNW
CSL-04 Rocket 3.6 23:38:55 10° SSE 23:44:26 82° ENE 23:50:00 10° N
Cosmos 2360 Rocket 2.1 23:43:17 10° S 23:48:48 61° ESE 23:50:17 45° NE
COSMOS 2455 3.1 23:44:03 10° N 23:49:34 44° ENE 23:49:34 44° ENE
Meteor 2-12 Rocket 4.3 23:43:54 10° S 23:49:56 87° E 23:56:00 10° N
CZ-2C R/B 4.2 23:45:12 10° N 23:50:05 34° WNW 23:54:51 10° SW
SME Rocket 3.6 23:43:29 10° NNE 23:50:17 81° ESE 23:54:50 10° S
FUSE 3.9 23:45:07 10° WSW 23:50:31 77° NNW 23:51:38 56° NE
SEDSat Delta rocket 4.2 23:47:46 10° NW 23:51:16 30° N 23:51:16 30° N
DELTA 2 R/B (1) 4.4 23:47:43 10° SSW 23:52:06 33° SSE 23:52:06 33° SSE
SWIFT 3.4 23:48:53 10° SW 23:52:06 33° S 23:52:06 33° S
